GFSSW_500_spd_000.txt.gz
Wind_Speed
17 18 18 19 18 18 18 17 17 18 18 18 18 18 17 17 18 17 16 17 17 19 20 20 21 20 20 21 21 20 19 19 18 16 15 14 15 15 14 14 15 11 14 13 13
23 24 24 24 25 24 24 24 24 23 23 23 23 23 24 22 22 23 22 22 22 23 24 25 25 26 26 26 27 26 26 27 24 25 23 22 20 19 18 17 18 17 19 18 17
30 30 30 30 30 30 29 28 28 28 28 28 27 27 26 26 26 25 26 26 26 27 28 28 28 29 30 31 33 31 31 32 30 30 29 29 29 27 23 19 24 22 21 21 24
36 36 36 36 35 34 33 32 32 31 30 30 29 28 27 27 28 29 29 29 28 29 30 32 31 32 32 33 34 32 32 35 33 34 33 34 34 33 32 23 28 28 26 25 26
36 36 37 37 37 36 35 34 33 33 32 32 32 31 29 26 31 31 31 31 31 31 32 33 34 35 34 36 37 36 34 36 35 36 36 39 35 37 30 33 33 32 30 30 29
33 34 34 34 34 34 34 34 32 32 32 33 33 33 31 26 31 31 31 32 32 32 34 35 35 37 36 35 38 36 36 35 34 34 40 42 35 34 24 37 34 35 34 32 31
36 35 35 35 34 33 34 35 35 34 35 36 37 38 35 32 33 35 34 34 34 34 34 36 38 39 39 36 37 36 37 34 27 32 41 42 31 25 27 36 33 33 33 35 33
39 39 38 38 38 37 37 39 39 39 41 43 43 44 40 35 36 37 39 37 36 37 37 37 39 42 39 37 40 39 39 34 24 32 39 41 34 21 27 33 30 30 30 29 28
42 42 42 43 42 42 43 45 45 45 46 46 47 48 45 40 37 40 41 40 40 38 39 39 42 42 38 37 42 37 42 40 34 31 39 44 44 29 32 36 32 27 29 28 28
46 46 46 46 46 46 46 47 48 48 47 48 49 49 46 43 40 40 41 42 42 42 42 43 46 48 39 38 45 42 49 47 43 31 43 50 49 42 35 39 36 31 29 29 30
51 50 50 49 50 50 49 50 50 51 50 49 50 48 48 47 45 42 40 42 43 44 42 46 50 47 38 42 44 48 51 53 47 38 48 52 55 50 41 38 36 36 33 29 29
52 52 53 51 51 51 50 51 51 51 52 52 50 52 51 50 47 43 41 41 43 44 45 47 53 41 43 44 47 49 50 51 49 44 51 55 56 53 47 41 34 34 31 30 32
53 51 50 49 50 50 52 51 50 50 54 52 51 51 49 48 46 43 44 44 44 47 44 49 50 48 48 48 48 47 50 49 54 52 53 55 58 49 42 39 36 35 34 33 33
53 50 50 53 54 53 51 50 53 54 57 55 54 48 47 46 46 49 45 41 42 41 42 50 44 45 45 47 40 51 44 50 54 56 58 54 57 48 42 43 39 39 34 29 32
57 62 57 56 55 54 55 56 53 45 54 52 52 49 41 43 44 45 47 46 46 45 46 46 46 47 50 46 47 51 49 50 52 56 59 61 62 56 48 42 42 32 34 33 28
60 63 64 59 57 60 59 57 52 48 59 57 56 54 51 47 49 52 53 53 52 50 50 47 46 49 50 50 50 50 52 48 50 54 62 57 56 49 53 49 44 45 40 41 36
54 57 61 64 63 58 58 58 55 56 59 57 57 57 55 61 62 56 56 59 61 58 56 52 54 53 53 53 53 48 51 57 62 60 62 61 58 52 55 58 56 53 50 45 44
55 55 58 59 54 54 55 56 59 57 55 56 59 59 60 62 63 61 59 62 62 64 68 66 58 56 55 54 56 57 57 61 65 65 65 63 67 54 60 59 61 60 57 61 51
72 67 64 65 66 65 62 67 62 60 63 59 61 65 68 72 68 66 70 68 64 61 62 64 68 63 63 61 60 62 65 60 62 64 69 70 70 62 61 61 65 61 56 60 62
76 72 71 67 72 70 72 71 71 67 66 67 68 69 70 71 73 73 70 73 70 66 65 65 66 67 59 58 60 58 56 60 66 70 71 70 71 68 63 62 65 64 58 58 58
71 73 81 71 72 73 77 78 72 69 71 68 69 72 74 75 75 77 76 74 71 73 72 74 74 66 65 57 49 51 55 58 63 71 74 75 67 55 61 62 62 58 57 56 50
71 71 71 71 75 76 77 71 70 70 70 74 74 73 73 72 77 83 89 86 80 71 72 75 77 78 77 70 67 61 54 50 55 58 66 75 78 44 55 55 57 61 57 54 56
73 73 72 73 75 74 74 75 71 66 67 71 73 72 69 72 76 77 78 76 74 72 72 74 68 75 78 73 73 71 70 64 58 57 69 72 72 56 56 55 50 54 49 43 53
69 70 70 72 72 73 69 69 71 69 70 68 71 70 72 73 71 74 74 74 67 67 66 71 76 75 78 78 77 80 74 73 73 65 68 76 85 65 51 51 54 68 67 68 60
69 71 72 73 71 69 69 69 71 71 71 70 71 72 72 74 74 73 68 70 71 70 69 68 74 74 78 72 67 66 72 72 77 83 89 91 92 86 82 82 83 80 77 71 70
68 68 70 69 66 66 65 64 64 62 64 68 70 68 68 70 66 66 62 58 67 67 66 66 65 62 68 66 62 69 64 59 63 64 69 69 74 64 68 63 62 79 73 63 58
66 67 66 66 65 66 66 65 64 64 64 62 64 65 64 67 68 66 66 67 68 67 66 66 68 67 66 53 57 67 64 68 58 56 68 66 60 57 52 51 61 74 86 89 79

GFSSW_500_spd_003.txt.gz
Wind_Speed
16 16 17 17 17 17 17 17 16 16 17 17 18 18 18 19 19 20 20 21 20 20 21 21 22 23 24 24 24 25 23 24 23 23 22 21 20 20 16 17 16 17 18 18 18
22 21 21 21 22 23 23 23 23 23 22 22 23 22 22 22 23 23 23 24 24 24 24 24 25 26 27 28 27 29 27 27 28 28 27 26 25 27 21 22 20 23 21 21 22
28 28 27 27 28 28 28 28 28 28 27 27 27 26 24 23 25 25 25 25 24 25 26 26 28 29 29 30 30 30 28 30 30 31 32 31 29 30 28 21 26 29 28 23 24
35 35 35 34 34 34 34 34 33 32 32 31 30 28 26 25 27 28 27 27 26 26 28 28 28 29 31 32 33 32 30 33 30 35 34 34 33 31 31 24 29 30 30 26 27
41 41 40 40 39 37 37 37 36 36 36 35 34 32 27 22 29 30 29 29 29 28 29 30 29 31 32 33 35 32 31 32 32 34 36 36 33 36 27 28 32 30 30 31 32
36 37 37 37 37 36 36 36 35 34 34 33 33 33 31 24 31 33 32 32 33 32 33 33 34 36 35 34 36 36 33 31 30 30 34 37 35 36 19 31 32 29 29 28 29
38 37 37 37 37 37 36 36 35 34 35 36 37 36 32 29 34 38 40 39 38 37 35 36 37 40 39 36 37 39 37 33 24 28 35 40 40 27 24 33 31 29 29 30 29
42 41 40 39 39 38 39 39 37 38 38 41 42 44 41 37 40 41 44 42 42 41 41 40 44 44 41 37 41 40 41 35 22 31 38 44 45 23 31 35 32 34 32 31 31
44 43 43 42 42 42 43 43 43 43 44 46 47 48 45 39 39 41 42 42 44 43 44 44 47 47 42 40 47 40 46 45 40 30 40 45 49 31 35 40 40 37 36 34 32
47 47 46 46 45 45 45 46 47 47 47 48 50 49 49 43 42 40 40 41 43 45 46 47 51 50 43 42 49 45 49 48 45 31 40 49 50 44 37 42 43 41 39 39 36
51 52 51 50 51 50 50 50 51 52 51 51 52 52 50 49 47 43 40 41 44 44 45 48 53 49 41 43 47 51 51 50 45 39 49 50 52 45 38 35 35 36 38 38 38
53 54 55 53 53 53 53 54 54 54 54 51 50 54 53 52 50 45 44 44 44 45 45 47 52 44 47 47 49 51 51 52 52 48 54 54 52 48 43 38 34 30 32 30 30
57 55 55 54 54 53 52 54 54 54 58 54 54 55 54 53 53 49 48 44 43 44 44 48 48 48 50 51 50 50 52 52 56 51 53 55 55 50 41 36 34 38 35 36 32
60 59 57 56 53 52 52 52 54 54 59 60 59 56 54 56 54 49 49 45 43 41 37 48 40 43 47 51 43 52 43 48 51 56 57 55 53 48 42 42 40 40 41 31 30
54 58 58 56 53 53 52 54 55 57 61 59 59 57 50 45 44 41 45 45 44 45 46 46 46 44 47 47 51 53 54 52 52 56 59 57 60 54 55 48 42 37 37 43 36
52 52 54 54 50 51 57 60 59 59 65 62 62 61 60 56 53 52 55 55 54 53 51 47 50 54 47 49 52 54 55 57 57 58 61 58 59 45 56 57 59 57 50 50 54
56 53 50 55 56 56 53 53 57 63 66 66 63 58 57 58 59 56 55 53 55 59 55 56 55 54 53 53 54 53 55 59 63 66 64 63 64 56 63 60 66 65 65 66 60
59 61 57 54 54 55 57 55 57 63 62 61 61 59 58 58 60 59 60 60 59 61 64 65 61 61 61 56 57 57 57 61 65 66 68 67 74 68 63 62 67 67 68 67 69
67 64 62 64 63 60 60 65 65 62 65 67 68 65 64 64 62 64 64 63 64 63 60 64 69 69 66 63 61 62 60 54 60 61 68 75 75 73 68 66 67 68 70 70 68
78 69 74 70 69 69 69 72 72 70 62 70 75 77 75 71 71 71 71 70 69 69 67 68 70 67 70 68 69 65 62 62 60 63 65 65 64 69 72 70 67 68 65 62 58
70 70 69 69 68 70 77 81 76 75 75 73 74 77 82 79 78 72 75 74 71 72 72 73 74 76 78 76 73 73 74 74 73 73 76 76 73 49 55 65 69 61 58 59 57
71 72 70 70 72 71 72 70 69 67 71 70 70 72 73 77 77 71 75 76 71 70 74 74 75 74 78 76 75 75 76 74 67 72 70 65 67 61 47 44 49 54 59 51 41
69 66 66 66 71 71 70 69 68 67 68 70 70 70 69 72 74 79 72 65 65 66 69 70 70 72 73 74 74 63 60 70 74 71 73 75 76 65 59 58 59 62 62 56 58
69 70 70 70 69 70 70 70 69 66 68 70 69 67 67 69 69 72 71 74 71 71 70 71 72 74 70 68 74 76 74 70 71 74 74 71 69 63 57 57 59 62 68 70 65
70 70 70 71 70 69 69 69 69 67 67 66 67 66 66 66 69 70 70 69 69 67 65 64 70 67 72 75 73 73 70 67 65 65 67 66 70 69 66 70 72 70 77 81 83
69 69 71 70 68 69 67 68 67 64 65 67 69 67 66 68 66 67 67 66 65 63 62 59 66 67 69 66 65 72 75 76 64 60 70 73 77 71 71 65 61 65 75 79 79
67 70 71 70 71 70 69 68 68 66 66 67 68 67 67 68 68 68 68 66 66 65 63 67 68 69 76 73 79 84 76 69 67 66 67 66 68 66 62 65 66 71 67 71 79

GFSSW_500_spd_006.txt.gz
Wind_Speed
19 17 16 16 17 17 16 17 17 17 17 17 16 17 17 18 19 20 19 20 20 20 20 22 22 23 24 24 24 25 24 22 25 24 22 23 22 20 19 20 18 23 23 20 19
22 21 20 19 19 21 21 22 23 24 23 23 22 22 21 21 22 22 22 22 22 21 21 22 23 25 26 27 27 27 25 24 28 27 26 25 25 24 23 24 23 25 25 23 21
27 26 26 26 25 26 26 27 28 28 29 28 28 28 27 26 27 26 26 26 25 25 25 23 24 26 27 29 29 27 26 28 28 31 31 27 27 27 28 24 27 26 28 28 25
34 33 32 32 32 32 33 33 33 33 34 33 33 32 29 27 29 29 27 26 26 27 28 28 27 28 29 30 31 30 28 29 28 32 32 31 28 29 30 27 30 29 31 31 30
40 39 39 39 39 39 39 39 38 38 38 38 37 35 32 26 28 29 28 28 28 29 31 32 33 36 35 36 35 33 30 29 28 30 32 34 29 35 26 27 32 34 30 29 29
40 40 41 40 40 40 39 38 37 36 36 37 36 34 30 22 31 33 31 31 33 35 37 39 39 40 39 35 37 37 34 31 30 29 33 36 31 41 25 34 31 33 32 31 27
35 35 36 36 36 37 37 37 37 37 38 38 38 37 32 25 29 33 38 38 40 40 40 42 44 44 44 41 42 41 41 35 28 31 38 42 42 33 32 35 33 32 34 32 31
42 42 42 42 41 41 42 41 39 39 40 41 41 42 36 31 36 38 42 42 43 43 43 44 46 48 46 43 46 45 47 40 29 34 40 47 48 32 36 40 39 36 35 35 34
44 45 45 44 44 44 44 44 44 43 43 45 45 46 41 37 37 40 41 42 44 44 44 43 46 49 47 43 48 44 51 50 43 30 41 47 48 37 35 39 42 41 39 41 39
47 47 48 47 47 46 47 47 48 48 48 48 49 49 49 44 43 41 40 42 44 46 46 46 49 50 45 43 49 48 50 50 48 34 41 51 51 46 43 42 35 34 34 37 39
51 51 51 51 51 51 51 51 52 52 52 52 54 53 52 52 49 44 42 43 46 47 47 51 55 50 42 46 48 50 51 51 48 44 51 50 52 48 40 38 32 32 35 34 30
51 51 50 51 52 53 53 54 56 56 56 56 54 55 53 53 52 47 46 46 45 46 46 51 54 45 50 49 49 51 52 53 51 51 53 53 52 50 44 36 36 30 25 31 34
55 55 54 54 56 57 57 57 58 58 60 56 55 55 54 52 52 49 49 48 49 49 45 52 50 45 47 48 46 47 49 49 55 53 53 55 52 51 42 36 30 34 36 33 34
57 61 55 58 60 60 60 60 58 59 62 63 60 57 55 53 53 52 48 44 40 37 38 46 41 41 41 45 45 52 44 49 50 54 56 52 53 49 44 40 36 37 38 35 32
53 53 55 57 58 58 61 59 57 57 63 60 61 57 51 51 49 47 49 49 46 44 44 48 46 46 50 44 47 53 54 50 51 54 57 59 59 53 53 53 52 45 44 46 47
48 52 52 53 54 57 56 56 52 55 68 65 63 61 60 58 56 57 58 60 59 59 58 53 53 56 55 54 51 52 54 58 56 56 60 59 58 55 56 59 60 57 60 61 60
52 51 52 50 49 53 56 52 54 59 62 63 60 56 53 53 54 56 59 60 60 61 60 59 59 59 57 58 55 52 52 58 63 64 62 60 64 56 61 59 62 62 65 66 66
54 53 55 53 50 52 58 55 60 64 64 62 59 58 56 54 56 58 58 59 60 62 67 68 66 60 59 57 59 58 59 63 63 64 65 62 69 63 59 60 61 65 66 68 67
64 65 59 59 64 65 60 64 67 63 61 60 63 66 61 61 59 61 64 64 64 66 68 69 76 73 72 69 65 66 66 59 62 62 65 67 69 69 62 60 60 64 64 62 61
66 66 68 61 64 62 63 74 72 68 70 72 72 70 72 70 70 72 74 74 72 71 73 76 78 77 77 76 76 72 69 69 68 68 72 75 73 72 62 60 63 63 61 60 58
67 68 70 66 64 68 71 74 72 67 65 68 70 68 71 72 68 65 69 71 73 72 72 72 74 79 82 82 75 75 75 74 70 66 72 76 75 67 65 59 63 62 63 65 59
66 67 69 69 69 70 72 66 64 66 68 70 69 68 70 67 70 71 71 68 68 71 73 70 73 76 73 72 71 72 71 69 70 76 73 72 70 62 64 64 64 67 68 67 68
62 62 63 65 68 66 64 62 62 62 64 68 69 69 67 69 72 68 69 69 68 67 69 68 65 70 70 74 75 74 70 71 68 64 65 66 66 57 58 66 72 72 74 73 73
61 63 65 65 64 65 65 66 68 64 64 64 67 68 69 70 68 66 64 64 62 65 64 63 58 68 72 72 69 71 70 68 68 71 71 74 77 72 77 76 65 64 67 70 72
66 66 67 68 67 66 66 68 69 67 65 62 66 65 66 68 69 66 61 64 66 66 64 64 70 68 68 70 72 71 70 67 70 73 78 78 83 77 74 66 67 69 68 67 67
68 67 68 66 64 65 63 64 64 62 63 64 65 64 65 69 67 68 67 68 68 66 65 66 69 69 69 67 68 72 69 66 69 71 72 73 75 75 78 80 72 73 72 66 72
65 66 65 65 65 66 66 65 65 65 66 67 69 70 69 69 70 71 70 70 70 70 68 70 68 70 76 70 73 78 72 72 75 72 76 80 79 79 78 77 75 75 80 80 80

GFSSW_500_spd_009.txt.gz
Wind_Speed
21 20 18 17 16 17 16 15 15 15 15 15 15 15 15 16 17 18 18 19 19 18 19 19 19 20 20 21 22 23 22 20 23 23 21 20 19 20 19 20 22 24 21 21 19
22 21 20 19 18 17 18 19 20 20 21 22 22 21 21 21 23 23 22 22 22 22 22 21 21 22 23 24 24 25 23 23 26 27 25 24 22 24 23 22 25 25 28 24 24
25 24 24 24 24 23 23 23 24 25 26 26 27 26 26 26 26 25 26 26 25 24 23 23 25 25 24 26 27 27 25 25 25 29 28 25 23 26 27 22 27 28 28 28 28
32 31 31 30 29 29 30 30 31 31 32 31 31 31 30 28 29 29 28 26 25 25 26 26 26 28 28 29 30 29 25 26 25 29 30 29 27 27 31 24 31 31 30 30 32
39 38 38 37 36 36 36 36 37 37 38 38 37 35 32 27 29 30 27 26 27 28 28 30 31 34 33 34 32 31 30 28 27 28 30 33 29 36 29 29 31 31 27 29 30
39 40 40 41 41 41 41 41 40 39 38 37 35 33 29 21 29 30 30 31 30 30 33 37 38 41 40 39 39 37 34 31 30 31 34 38 33 35 23 37 34 31 29 31 30
36 36 35 36 36 36 35 34 34 35 36 37 38 37 33 25 29 32 33 32 34 37 39 41 42 44 43 41 41 43 41 35 30 34 41 43 38 32 31 37 38 34 32 33 33
41 41 40 39 39 40 40 41 41 41 41 41 42 42 35 30 33 35 37 37 38 39 40 40 42 44 44 43 42 44 45 42 33 37 41 46 44 32 35 37 36 36 35 37 36
44 44 44 44 44 45 44 43 43 43 44 44 45 47 42 36 35 38 38 38 40 42 43 42 44 46 43 41 46 44 50 48 42 32 43 48 49 36 36 39 35 33 34 33 34
46 46 46 45 45 45 45 45 45 45 47 49 49 49 49 43 41 39 40 42 43 44 44 44 47 49 43 43 50 50 52 50 48 36 43 51 52 45 40 40 35 34 34 33 32
50 51 51 50 50 49 50 50 49 49 49 50 52 53 51 51 48 45 44 45 46 46 45 47 52 48 44 47 50 51 53 55 46 43 52 47 50 47 40 38 35 34 33 35 36
52 52 51 50 48 49 49 50 49 50 49 50 52 53 54 54 53 49 46 46 45 47 48 49 53 46 49 51 52 51 54 53 52 48 51 51 51 48 47 39 36 35 28 32 32
55 54 54 53 52 52 52 52 53 54 57 52 55 59 60 56 53 48 47 46 46 47 47 51 51 48 51 50 50 50 52 51 55 51 51 55 58 54 47 42 34 37 39 38 38
58 58 58 61 60 60 59 59 59 58 60 61 58 55 50 51 51 49 46 44 42 40 39 46 39 43 45 47 45 50 46 51 52 53 56 54 56 54 55 49 45 45 44 41 33
57 61 56 56 57 57 56 58 55 54 58 57 56 53 50 48 48 45 45 47 48 49 52 51 49 48 51 49 54 54 55 54 56 57 59 62 60 59 58 60 53 50 48 46 46
49 49 48 48 51 50 50 50 49 47 59 57 55 51 50 51 52 52 51 48 48 48 51 51 52 53 50 52 54 58 59 61 63 64 64 60 61 59 61 62 60 47 23 43 53
54 53 51 51 50 52 49 49 49 53 55 54 53 51 49 50 50 53 52 51 51 52 53 55 53 55 50 53 52 52 55 60 63 63 65 66 66 66 64 61 63 59 54 53 54
56 58 53 48 48 51 51 50 55 58 52 50 51 54 53 52 54 54 53 54 54 55 59 62 65 58 59 58 60 61 61 62 64 66 67 66 71 65 68 67 60 61 63 62 62
57 53 53 52 55 54 55 60 60 59 58 56 53 56 57 58 59 62 63 62 60 59 63 67 70 65 62 63 62 65 66 61 67 68 69 73 73 67 64 67 70 69 66 65 67
62 59 56 57 57 59 62 64 63 61 63 64 65 64 63 64 65 64 64 66 65 64 63 64 70 74 73 68 69 64 61 64 64 65 69 73 73 72 65 66 69 73 75 75 73
64 62 59 55 57 60 65 65 63 61 62 61 65 66 67 65 64 64 65 66 65 64 62 61 67 72 71 74 67 67 67 67 67 69 68 65 72 65 63 65 67 68 70 71 71
61 62 59 56 58 59 59 55 56 59 58 59 60 61 60 61 63 64 65 64 63 66 67 64 64 68 69 71 70 70 67 64 64 56 63 68 65 54 58 68 70 70 68 70 69
54 53 54 54 54 53 53 54 54 54 55 58 59 59 58 61 65 64 63 64 62 62 60 59 61 66 67 65 67 66 60 43 44 58 72 67 63 61 65 57 56 66 68 70 70
54 55 55 55 56 56 57 56 58 57 58 58 58 60 61 62 61 66 64 64 63 65 65 66 68 68 67 67 68 68 61 62 74 76 71 74 76 73 69 62 64 63 60 63 68
56 57 57 57 57 55 57 59 58 57 55 55 58 55 57 60 61 61 61 61 62 64 65 67 69 68 67 68 66 73 72 68 71 75 82 79 79 73 72 73 73 74 76 77 78
56 56 57 56 54 56 57 57 58 58 62 62 62 59 59 61 63 63 64 64 65 65 68 69 73 73 75 71 75 78 74 73 73 74 75 75 76 74 73 72 74 77 79 75 74
56 56 57 57 56 59 61 61 62 63 66 64 66 66 64 66 68 70 70 71 72 71 71 73 75 76 81 75 79 83 75 75 75 74 75 77 75 75 76 76 78 78 80 80 80

GFSSW_500_spd_015.txt.gz
Wind_Speed
22 22 21 20 19 18 17 17 16 15 15 14 13 13 13 15 15 15 16 18 19 20 20 20 20 19 19 19 18 19 18 17 19 19 21 19 22 20 21 23 25 22 24 25 25
26 26 25 24 23 21 20 20 21 21 21 20 20 18 18 19 20 21 22 24 25 24 24 24 24 23 21 20 19 19 17 21 22 23 21 22 21 22 22 23 26 25 24 24 24
29 28 27 25 24 23 22 22 22 23 23 24 24 23 23 24 26 27 28 28 28 29 28 28 26 24 23 22 21 19 21 26 25 27 26 25 25 25 25 22 28 29 27 27 23
32 30 28 27 27 26 26 26 27 28 28 28 29 29 29 29 32 31 32 33 32 29 28 27 26 25 24 24 24 25 28 30 30 30 30 30 29 30 30 23 32 30 28 27 27
35 33 32 32 32 32 32 33 33 34 35 35 35 34 34 33 36 38 35 33 31 28 28 28 28 30 28 28 31 32 31 31 30 30 32 34 32 37 27 32 33 33 31 30 30
38 38 38 38 38 38 38 39 39 39 39 39 39 37 35 31 34 35 31 30 31 32 31 32 32 34 32 32 36 36 32 32 31 33 35 37 32 36 31 36 34 35 35 34 33
41 41 40 40 39 38 37 37 36 36 36 36 35 34 30 29 33 35 36 35 34 35 34 36 38 39 37 37 36 36 38 35 33 34 39 42 31 33 35 37 35 35 35 35 36
40 39 40 40 40 39 39 38 37 38 38 37 38 38 36 35 38 39 39 37 37 36 38 39 41 41 38 40 41 41 44 41 35 35 43 48 44 32 37 39 33 33 33 36 36
42 42 43 44 44 43 43 43 43 43 44 44 44 45 41 38 36 37 38 39 40 40 40 41 42 44 42 44 47 46 48 46 43 35 45 51 50 36 36 41 33 33 36 37 36
42 42 42 43 43 43 43 43 44 44 45 45 47 45 45 41 41 41 41 41 43 45 44 44 46 48 43 45 49 49 51 52 50 38 45 51 49 50 39 41 34 32 35 37 37
45 46 46 46 45 46 45 45 46 49 48 49 51 50 51 49 47 44 43 43 44 44 45 44 48 50 45 49 48 49 53 53 50 52 52 48 52 49 50 39 36 35 34 36 39
48 49 48 48 48 48 49 49 49 50 50 49 50 51 50 49 49 42 41 43 43 46 47 49 53 54 50 47 50 50 55 55 55 56 58 55 53 48 50 42 38 36 38 42 40
53 52 53 53 53 53 53 53 54 54 56 52 51 53 53 53 51 50 49 50 50 52 52 54 54 53 49 50 51 54 55 57 59 58 57 61 57 54 52 48 44 44 44 42 43
57 58 57 57 57 57 58 57 57 57 58 60 60 57 57 56 56 52 49 49 47 45 45 50 46 47 50 49 52 52 49 53 55 57 60 63 65 59 58 56 58 54 51 52 49
54 55 57 57 59 58 57 56 54 54 57 58 58 56 49 46 47 44 42 41 42 40 42 44 44 44 46 49 50 53 55 54 56 59 61 60 64 62 58 59 58 57 55 51 49
48 48 49 50 51 49 50 49 45 46 55 51 49 47 47 46 45 44 44 43 43 42 42 43 46 48 49 50 51 53 53 55 55 56 59 59 58 61 60 60 62 65 61 46 32
48 48 48 49 51 51 47 45 47 53 57 55 51 49 49 49 45 44 44 43 44 47 47 48 47 49 49 50 50 50 53 57 60 60 63 57 64 65 64 64 64 61 62 59 57
49 48 49 52 52 53 47 48 54 59 57 56 55 55 53 52 49 47 45 44 47 47 49 51 49 52 57 54 55 55 57 59 63 64 66 64 70 68 68 67 67 69 69 68 67
54 52 54 54 53 51 51 54 57 57 55 56 55 56 52 52 49 49 46 47 48 49 53 54 55 58 57 56 56 58 58 58 62 62 65 70 69 66 65 67 67 69 70 72 74
48 52 50 54 55 57 56 56 58 54 56 57 58 56 56 54 54 52 51 52 48 50 52 53 56 54 55 55 56 56 56 56 50 55 63 65 70 70 60 63 64 64 68 67 68
56 57 55 54 57 58 56 55 54 55 57 59 61 63 63 63 64 65 66 58 55 54 53 55 56 55 57 56 55 57 57 58 59 62 65 64 66 65 62 58 65 70 66 65 66
61 67 66 69 68 68 67 69 68 69 70 62 63 63 58 49 50 48 51 48 49 48 51 53 57 56 55 54 57 59 58 56 56 58 61 61 64 55 61 68 72 72 71 65 65
72 71 72 74 73 71 68 65 63 66 66 64 62 54 50 49 52 49 48 49 50 51 54 55 58 60 60 58 59 59 59 59 59 63 67 70 70 65 66 57 58 58 62 58 63
71 71 73 71 70 67 64 65 65 62 61 58 53 51 52 51 52 53 53 54 54 55 56 60 61 61 62 61 60 62 60 61 62 65 68 69 70 63 63 63 67 52 56 67 75
68 71 71 70 66 65 65 65 65 61 57 53 55 55 55 56 55 56 57 58 56 55 57 59 61 60 62 62 62 64 64 63 66 67 72 73 75 70 70 78 80 84 87 87 82
70 72 70 67 65 66 66 63 60 57 55 55 56 57 56 57 57 58 58 59 58 58 60 61 65 65 68 65 66 70 72 73 74 75 78 80 83 80 84 85 87 89 89 91 91
67 67 65 65 61 60 59 54 54 55 56 55 56 57 58 59 60 60 60 60 60 61 62 64 66 68 74 69 72 80 75 78 80 81 82 85 85 85 86 88 90 91 90 91 91

GFSSW_500_spd_021.txt.gz
Wind_Speed
21 19 18 17 16 15 15 15 15 14 14 14 13 12 11 11 11 12 12 13 13 15 16 17 18 20 21 22 22 21 18 19 20 20 19 19 18 20 20 19 21 19 21 21 17
25 24 23 22 21 21 20 19 19 18 18 18 17 17 17 18 18 18 18 19 20 21 22 22 24 26 25 24 24 21 20 21 21 20 21 25 26 25 23 20 24 24 24 24 21
29 28 27 27 26 25 24 22 21 21 20 19 20 22 22 22 23 23 23 24 25 26 27 28 29 29 26 22 24 21 21 23 23 24 23 26 29 28 24 20 27 23 25 29 27
33 32 31 30 29 28 27 26 24 23 22 22 22 23 24 25 27 28 28 29 30 31 31 31 29 24 21 21 21 21 23 24 27 28 29 29 28 26 26 26 24 25 27 28 30
36 36 35 34 33 32 31 30 28 27 27 27 27 28 27 28 32 34 33 34 35 35 33 28 25 23 24 25 25 23 25 26 30 31 31 29 29 28 28 25 24 27 27 29 31
38 38 37 37 36 35 35 34 33 32 32 33 33 33 33 34 35 37 35 33 32 30 28 29 30 29 29 27 28 27 28 29 29 32 32 31 30 31 31 26 27 28 31 31 35
41 41 40 39 38 37 37 37 37 37 38 38 38 37 34 31 30 30 30 29 29 30 33 34 35 34 31 30 31 32 33 30 33 37 36 36 32 35 34 31 26 30 32 34 36
40 40 41 43 43 43 41 41 42 41 41 39 37 35 33 30 32 33 34 34 35 35 35 35 34 35 34 35 36 36 39 36 35 38 39 39 37 34 35 36 27 30 33 37 34
42 42 41 42 43 42 41 40 40 39 39 38 38 38 37 34 35 36 36 35 36 36 35 36 38 39 37 41 41 39 42 40 40 39 40 40 41 40 31 35 29 31 34 34 35
41 41 42 45 45 44 44 43 42 42 41 41 40 40 37 35 36 37 38 38 39 39 40 42 44 41 38 41 41 42 43 43 44 43 46 48 43 43 43 38 36 38 35 32 31
43 43 44 45 43 42 42 42 42 42 39 40 41 41 41 38 38 38 38 39 39 39 41 42 42 39 40 41 42 42 45 48 47 50 53 50 48 44 42 42 43 42 35 31 34
44 45 46 47 45 44 44 44 43 44 42 39 40 42 42 41 43 41 40 41 41 41 43 43 44 42 44 45 47 48 50 50 53 51 53 49 48 42 39 44 44 45 44 41 38
48 48 48 48 48 45 45 45 46 46 47 41 44 47 48 46 45 43 43 44 43 43 42 44 44 43 44 48 48 46 47 48 49 48 45 49 49 42 41 44 45 43 42 40 37
50 49 50 51 50 49 49 52 53 53 51 53 50 49 50 49 48 42 37 38 39 33 32 39 37 37 39 41 44 44 45 45 44 47 47 47 52 46 49 49 48 48 46 46 41
54 52 53 54 54 53 55 52 51 49 55 53 53 50 44 42 42 39 37 37 38 36 37 38 40 38 38 41 44 45 46 45 45 47 51 49 53 51 52 51 51 52 50 48 45
55 55 55 55 54 52 48 46 45 45 55 51 50 46 44 42 42 42 40 38 38 40 42 44 44 43 44 43 43 45 48 48 49 50 54 51 53 54 53 52 51 51 51 50 47
51 52 53 53 52 49 45 42 41 48 49 49 45 44 44 43 44 42 42 42 40 40 41 42 41 42 44 45 45 47 49 48 51 53 54 54 56 54 52 52 53 53 53 52 51
48 49 46 46 47 45 44 43 46 50 45 46 46 47 47 46 46 45 46 44 45 45 44 43 42 43 46 47 48 48 49 49 51 52 51 50 54 50 52 53 54 53 54 55 54
45 46 48 48 46 45 43 48 50 48 50 47 49 49 50 48 46 46 46 45 46 45 43 45 44 41 41 44 47 51 53 55 58 58 57 54 53 52 51 52 54 55 55 56 58
49 48 47 46 46 46 48 53 55 53 52 53 52 51 48 45 45 44 43 46 43 45 45 49 50 52 52 53 52 52 53 55 54 55 56 52 47 50 50 50 52 55 59 60 61
56 53 48 48 49 55 56 56 56 52 49 49 49 46 45 45 45 46 49 49 50 55 55 57 58 55 55 52 50 51 50 49 51 53 55 55 52 51 54 55 58 59 60 61 63
51 49 50 54 53 52 57 52 52 48 47 50 52 50 50 50 55 58 59 61 62 57 54 51 52 53 49 50 50 50 46 49 53 54 56 58 58 54 55 56 57 59 61 62 65
54 52 55 62 63 54 57 54 52 53 51 54 57 58 58 61 63 63 58 57 56 56 54 51 53 53 53 52 50 48 49 52 56 58 58 59 60 54 57 58 60 63 65 68 69
62 59 60 67 61 60 63 61 55 54 56 59 60 62 65 63 58 59 59 55 54 53 53 52 53 53 51 52 52 53 52 54 58 60 59 61 59 58 58 61 64 65 66 70 72
62 64 66 69 67 57 54 59 59 63 60 57 61 64 63 60 59 60 57 56 55 52 52 52 52 55 53 55 58 58 57 58 62 59 60 63 64 65 66 69 70 70 71 73 77
56 53 59 52 48 55 53 57 65 64 66 67 67 65 63 62 61 58 55 52 51 51 52 53 56 58 57 57 59 62 60 63 62 63 67 68 72 69 72 72 73 74 75 77 80
59 55 64 56 58 61 68 69 66 70 74 70 68 66 62 58 54 54 51 50 53 55 55 57 59 59 61 61 62 66 58 61 64 64 69 73 74 74 74 74 76 78 80 81 81

GFSSW_500_spd_024.txt.gz
Wind_Speed
22 21 20 20 18 17 16 15 13 13 13 14 14 13 13 12 11 11 11 11 12 13 14 15 16 17 19 22 23 21 19 19 19 19 18 17 16 16 19 19 22 21 23 21 18
25 25 23 23 22 20 19 18 17 17 16 16 17 17 17 17 17 17 17 16 17 18 19 20 20 21 24 26 24 21 21 19 19 19 21 22 22 22 21 18 20 20 23 24 23
29 28 27 26 25 25 24 23 21 20 20 19 20 20 21 21 22 22 21 22 22 23 24 24 25 26 27 24 23 19 20 20 21 21 23 24 26 28 26 22 20 21 25 28 27
34 33 32 31 30 29 28 27 24 23 22 22 22 21 21 22 24 24 24 25 27 28 28 29 29 28 25 21 18 17 22 21 25 26 26 26 26 27 26 23 26 24 23 27 28
38 36 35 34 34 33 32 31 29 27 26 25 25 25 25 25 28 28 28 29 31 33 34 34 32 26 23 25 25 22 23 24 25 29 29 28 28 26 26 26 27 33 33 28 27
40 39 38 37 37 37 37 36 34 33 32 30 29 29 29 30 32 33 34 34 33 31 30 29 26 26 28 29 27 25 25 25 28 31 31 31 29 29 29 27 30 34 35 35 31
43 42 41 40 39 39 39 38 37 37 36 35 34 34 33 35 36 36 34 31 29 30 30 30 30 31 30 30 27 28 27 28 32 34 33 34 31 33 32 31 32 35 36 33 32
41 41 41 42 41 42 41 41 40 39 38 38 38 39 37 34 33 34 34 33 34 34 34 33 33 32 30 31 32 34 34 32 33 33 34 35 32 30 31 34 36 37 36 34 33
43 42 42 42 41 40 40 41 41 41 42 42 40 40 36 33 34 35 36 36 36 35 34 34 35 35 33 36 37 37 39 36 32 34 36 37 35 33 33 36 38 36 34 32 34
43 43 43 43 43 43 41 40 41 40 40 40 40 41 38 36 35 34 34 34 34 35 36 37 37 36 34 37 38 38 38 37 36 35 39 42 40 41 41 41 39 37 35 32 32
43 42 42 42 41 40 41 41 41 41 40 39 40 40 38 37 37 36 35 34 34 34 36 38 39 36 37 39 39 39 39 40 38 41 45 42 44 41 42 42 40 34 32 35 37
45 44 43 42 41 40 43 43 43 44 42 41 42 42 41 40 39 36 36 37 37 38 39 40 42 38 41 41 41 41 42 41 42 41 42 41 42 39 37 38 39 38 37 36 35
48 47 46 45 43 41 43 45 44 44 45 39 41 43 43 43 41 38 40 42 40 41 38 40 39 37 37 39 38 39 37 38 39 38 43 45 44 38 39 39 38 41 40 39 39
51 50 49 50 48 45 45 46 46 46 49 49 45 50 49 47 46 43 42 41 40 34 34 37 31 34 34 34 36 36 36 38 39 43 43 44 48 42 40 42 43 42 43 43 44
54 52 52 54 54 49 48 47 48 45 52 53 52 45 42 43 43 39 35 34 35 33 36 38 38 34 34 35 37 37 39 40 41 42 44 44 47 50 48 48 48 48 47 47 43
64 57 56 56 56 53 52 50 49 50 57 51 50 45 41 39 39 39 38 38 39 37 37 38 38 37 38 38 37 37 37 39 41 43 46 43 47 51 49 48 46 46 47 46 45
50 57 54 51 49 51 50 49 50 53 51 48 45 41 39 37 37 37 39 41 41 40 39 40 39 40 40 41 39 39 38 41 45 45 46 45 47 46 46 51 53 53 53 50 50
42 44 44 43 43 43 42 45 48 53 45 44 43 42 40 41 42 43 45 43 42 42 41 41 39 39 40 39 39 42 41 40 44 47 47 50 53 53 54 56 54 55 54 51 51
42 37 42 49 45 43 42 45 48 47 44 43 44 45 47 47 46 47 46 47 47 46 42 43 42 38 40 39 40 42 46 46 51 52 55 57 60 59 58 56 55 53 52 53 54
47 48 44 47 48 44 46 49 49 52 49 46 48 49 49 48 50 49 49 50 46 42 44 42 43 42 43 46 48 50 52 54 56 58 61 60 57 57 54 54 53 52 53 55 57
51 51 52 54 52 52 54 53 52 51 50 46 50 53 54 55 53 52 52 50 45 41 41 41 44 48 52 54 51 50 51 52 53 56 59 59 56 54 53 54 54 55 56 59 61
59 59 61 51 50 55 54 54 54 52 52 55 53 55 54 48 48 50 47 46 49 49 50 53 56 59 53 50 48 48 49 50 54 55 56 60 55 54 56 58 58 59 62 64 65
63 65 65 62 64 63 56 55 56 57 56 59 56 52 48 50 51 49 50 53 55 56 56 54 56 56 54 52 50 50 48 51 57 58 58 60 60 55 57 60 61 64 66 67 67
67 61 59 53 59 58 60 63 65 66 63 58 52 47 51 50 51 55 57 55 53 55 53 52 54 56 56 55 54 53 52 55 59 61 61 60 62 58 59 61 64 66 67 68 69
62 54 59 61 66 64 67 63 67 68 63 58 52 54 54 55 54 54 53 54 56 57 58 59 60 58 55 55 56 55 54 59 62 63 67 61 63 61 60 62 64 64 65 68 71
72 74 63 69 70 70 67 66 66 66 65 64 58 57 56 58 55 56 62 62 60 59 58 57 59 57 56 57 59 58 55 60 63 62 62 61 66 58 63 64 65 68 70 72 72
65 56 55 64 76 66 66 64 59 51 51 49 57 54 56 60 61 64 69 65 64 62 60 58 56 56 57 57 61 64 58 59 60 64 66 66 64 63 63 66 69 71 73 74 75

GFSSW_500_spd_027.txt.gz
Wind_Speed
23 22 21 20 19 18 17 16 15 14 13 13 14 15 14 15 15 14 13 12 12 12 12 13 14 15 16 18 21 22 23 21 19 17 15 15 15 16 18 20 23 20 20 17 15
26 25 24 23 23 22 20 19 19 18 17 17 17 17 17 17 17 17 17 16 17 17 17 17 19 19 21 22 24 25 22 20 18 18 18 17 18 18 20 21 21 22 21 20 19
30 29 28 27 26 25 24 23 23 22 21 20 19 20 20 21 21 22 22 22 21 22 22 22 23 24 25 26 25 22 20 18 19 20 21 21 22 22 23 22 19 19 24 24 21
34 33 32 31 30 29 29 28 27 27 25 23 21 22 22 23 25 24 24 24 24 25 25 26 27 29 30 28 24 19 22 23 25 24 23 23 23 24 25 26 27 24 25 25 25
39 38 37 36 35 34 33 33 31 30 28 26 25 24 25 25 27 26 26 26 27 29 30 31 31 30 29 25 21 21 24 24 26 29 26 25 26 25 24 27 29 31 30 28 27
43 41 40 39 39 38 37 36 35 34 33 31 30 28 28 29 29 30 30 31 32 34 34 32 28 26 26 26 26 25 24 25 27 28 28 28 29 27 26 28 28 29 30 31 30
45 44 44 43 42 41 40 39 38 37 36 35 34 33 31 33 34 34 34 35 35 34 31 30 30 31 29 29 28 28 25 25 28 28 30 31 29 30 28 29 28 29 33 33 31
46 46 46 45 44 43 43 42 41 40 39 37 36 35 34 35 36 37 38 36 34 33 33 33 34 33 30 29 30 30 29 28 29 29 30 32 26 28 28 30 32 33 34 35 34
48 46 45 45 43 43 43 42 42 41 41 40 39 40 39 36 38 39 38 36 35 35 35 34 33 31 29 31 32 32 33 29 28 30 33 34 28 28 30 35 36 36 36 34 32
49 48 48 47 45 44 43 43 42 42 41 40 39 39 38 35 36 38 38 38 37 35 33 33 32 30 27 32 33 34 34 34 30 31 36 36 36 32 35 35 36 34 34 33 32
48 47 47 47 46 45 44 44 43 44 43 42 42 42 41 38 37 36 35 35 35 35 36 35 35 32 35 38 38 37 38 38 34 35 37 35 37 33 35 34 33 31 29 30 30
49 47 46 45 45 43 43 42 41 43 41 41 41 41 40 39 38 37 37 37 36 36 36 37 40 37 39 41 42 42 41 36 38 37 37 35 33 32 34 35 34 33 33 31 32
51 51 49 49 47 45 44 44 43 42 45 41 42 43 42 43 41 38 36 38 38 39 38 43 43 42 43 41 39 39 36 36 37 35 36 38 38 34 35 36 36 35 35 36 38
54 55 54 53 51 49 47 47 46 46 49 47 44 47 44 42 44 40 43 45 44 41 44 45 41 40 38 35 35 36 34 37 37 40 40 42 45 39 35 37 38 37 38 39 40
65 59 59 55 54 51 51 51 50 49 54 51 47 47 45 44 45 42 41 41 42 40 40 37 35 35 36 36 36 34 36 38 41 42 46 41 44 46 42 42 40 39 38 38 40
64 67 61 58 59 60 60 54 55 57 59 56 51 44 44 43 43 42 39 38 37 38 37 37 38 35 35 36 35 37 39 42 44 46 51 42 44 50 45 44 42 43 44 45 48
58 70 62 55 55 60 63 62 60 59 53 52 51 46 43 43 41 39 37 36 37 36 35 37 36 36 36 36 38 41 42 43 46 45 48 49 48 46 45 46 46 47 51 54 56
53 54 66 58 60 56 53 61 62 52 49 49 46 45 45 40 39 38 38 38 37 37 39 39 37 38 39 41 42 43 44 45 45 47 47 46 52 51 52 52 53 56 57 57 58
47 53 58 54 49 46 49 58 55 48 43 40 39 41 39 39 40 40 41 40 42 42 39 41 41 40 40 43 43 43 43 40 45 47 49 52 55 55 56 55 55 56 56 56 56
49 50 50 43 41 44 51 52 49 48 45 43 42 42 44 44 45 45 44 45 43 44 44 46 46 44 43 41 41 41 41 44 47 51 57 58 58 58 53 53 53 54 54 55 56
50 57 55 49 48 52 58 57 55 50 46 47 46 45 46 47 48 50 49 50 46 46 46 47 50 52 48 44 42 44 48 50 48 53 56 57 61 58 54 55 57 58 57 58 58
57 58 54 57 55 62 60 60 63 56 52 51 49 49 50 50 51 53 53 49 50 48 44 43 47 51 48 50 50 50 48 46 50 53 53 57 63 59 57 58 58 58 58 60 64
60 62 65 66 64 68 66 63 62 65 56 55 56 54 52 55 56 58 56 53 53 49 43 43 49 52 57 56 54 53 50 49 52 56 62 62 63 57 57 58 58 60 63 65 68
57 62 68 70 66 68 71 66 66 61 60 58 58 59 63 62 60 58 60 58 53 50 51 52 57 58 59 58 57 56 53 55 58 62 61 61 59 59 59 60 63 65 67 71 71
59 67 64 70 68 68 70 69 67 62 62 60 65 67 63 62 63 64 64 56 53 54 58 54 57 56 56 57 56 56 56 60 63 62 65 60 60 57 61 63 65 69 71 70 72
63 63 69 68 67 70 73 74 75 70 70 69 73 70 66 67 68 59 58 58 61 62 59 58 58 58 60 61 62 63 61 66 65 64 64 62 64 60 63 65 68 68 68 69 67
63 69 68 58 58 59 64 68 73 72 75 76 73 67 65 63 61 53 59 60 59 59 56 60 61 61 63 64 68 72 68 65 63 60 62 67 64 64 65 68 69 69 68 67 68

GFSSW_500_spd_030.txt.gz
Wind_Speed
24 23 21 21 21 19 17 16 15 13 12 12 11 12 13 13 14 15 14 13 12 11 11 11 12 14 16 16 17 20 22 23 19 16 14 13 14 14 17 19 20 19 16 14 12
28 27 25 24 23 22 20 19 18 18 17 16 16 15 16 17 16 17 17 17 16 16 16 17 17 18 19 20 21 23 24 21 17 16 15 15 17 17 17 19 20 20 13 13 15
31 30 29 28 27 26 24 23 22 21 21 20 20 18 18 20 20 20 20 20 21 21 21 22 22 22 23 24 25 25 24 19 17 17 18 18 18 19 20 20 17 18 19 19 17
35 34 33 32 30 30 28 27 26 25 25 25 24 22 20 21 24 23 24 25 25 25 24 24 24 25 27 27 26 22 20 20 21 21 19 19 20 21 25 21 21 19 19 19 20
39 38 37 36 35 34 32 31 30 30 29 28 27 26 24 24 26 25 26 26 26 26 26 27 28 29 30 27 21 19 21 23 25 24 22 21 21 23 26 26 24 24 21 19 17
42 41 41 40 38 37 37 36 35 35 34 32 31 29 28 29 29 29 29 29 29 30 30 31 31 31 27 25 25 23 25 26 26 26 23 23 24 26 26 28 27 25 26 24 22
45 45 45 44 43 42 41 40 39 38 38 37 36 35 33 34 33 34 33 33 33 34 33 34 32 30 28 29 28 27 25 24 24 25 27 26 25 28 26 28 27 26 26 27 28
48 47 47 47 46 45 45 44 44 42 41 39 38 37 34 34 35 36 36 36 36 36 36 35 33 31 30 29 29 27 26 25 26 26 28 27 24 28 27 29 29 29 30 31 32
48 48 48 49 48 47 47 46 45 44 44 43 42 40 39 36 37 38 38 38 38 37 35 34 34 33 30 29 31 29 27 24 25 26 31 32 26 27 31 32 31 30 32 32 33
52 51 50 49 48 47 48 47 46 45 44 44 42 42 39 37 36 37 38 37 36 35 36 36 35 31 28 32 30 30 29 30 28 31 36 37 35 28 34 33 32 31 27 26 27
52 52 52 52 51 50 51 50 49 49 46 45 46 44 42 39 38 39 39 38 37 36 35 34 34 29 32 32 34 35 35 35 33 37 38 36 36 32 35 32 29 29 29 29 29
52 51 51 51 51 50 50 49 49 49 47 46 46 44 41 38 38 37 36 36 35 36 37 36 35 32 33 35 38 39 40 39 39 38 37 35 32 33 32 32 34 33 31 30 30
54 53 52 51 49 49 48 49 49 49 49 43 44 43 41 40 39 38 38 38 38 37 35 37 38 35 37 39 41 43 42 40 39 36 35 36 35 32 33 37 39 38 36 33 32
56 54 55 52 53 51 48 50 51 51 52 48 45 46 43 40 43 37 37 38 39 38 40 43 41 42 42 42 41 41 37 37 36 37 37 38 42 38 35 37 36 36 36 36 36
61 62 59 57 57 55 54 54 54 52 55 52 49 45 45 45 43 41 41 42 43 43 43 42 44 43 43 39 39 36 36 37 37 38 41 41 45 47 42 36 35 36 36 35 34
66 65 67 62 59 59 60 57 56 59 62 56 53 49 47 43 42 40 39 43 43 44 42 40 40 38 37 38 38 37 37 38 39 41 46 39 44 50 44 42 40 35 34 37 39
66 64 64 65 62 66 71 63 58 66 59 56 57 55 54 51 47 46 44 43 45 44 39 38 38 38 39 36 37 38 39 41 43 43 46 46 47 46 47 45 43 42 45 45 46
63 66 65 59 61 64 69 74 71 61 54 52 52 50 50 50 49 47 46 44 44 41 38 38 38 38 37 37 41 41 42 42 43 46 48 47 47 47 47 45 44 47 47 46 48
54 53 53 56 56 58 66 70 61 60 55 57 55 52 49 48 47 46 46 44 42 41 41 40 41 39 40 41 41 42 44 40 46 47 50 53 52 49 50 51 52 49 49 50 50
51 50 49 45 46 47 56 65 53 62 61 53 54 53 49 44 46 43 43 42 41 42 43 43 44 42 41 42 44 45 45 45 44 46 53 56 55 56 55 54 52 51 51 52 53
53 56 57 51 48 58 66 60 58 57 54 54 52 46 45 46 45 45 44 45 43 43 44 44 45 47 46 47 44 45 49 47 45 50 52 57 59 62 60 56 57 55 54 54 56
60 66 58 53 59 62 62 62 59 52 53 53 57 51 47 46 47 48 49 46 48 46 47 46 48 49 48 48 49 50 49 47 50 51 54 60 62 61 59 57 56 55 56 58 60
62 63 66 62 68 65 63 62 61 61 61 61 60 54 51 49 50 51 51 52 54 49 49 50 53 53 54 56 54 50 47 48 51 53 63 62 67 58 57 58 55 55 59 61 63
57 62 64 66 66 65 67 65 66 66 67 68 64 60 59 57 59 58 56 58 56 53 55 56 57 59 61 59 59 60 58 54 55 62 62 65 60 59 58 57 57 59 62 64 66
53 56 54 62 65 67 68 70 65 67 70 71 72 64 61 66 63 63 65 63 57 58 59 59 61 61 61 60 60 62 61 62 64 60 64 59 58 57 59 59 60 63 67 68 70
57 57 54 60 57 59 62 66 72 70 69 73 72 71 71 70 66 66 64 62 62 60 54 54 62 64 64 65 66 67 67 73 62 64 62 60 61 57 59 62 64 68 71 69 70
66 56 53 56 63 63 64 67 66 68 72 70 68 70 72 69 69 69 69 68 67 63 61 60 62 64 68 68 68 72 75 66 65 61 57 61 56 58 61 65 68 69 70 71 72

GFSSW_500_spd_033.txt.gz
Wind_Speed
24 23 21 20 19 18 17 15 15 13 11 10 9 8 8 9 10 11 12 12 11 11 11 10 11 11 12 13 15 16 16 18 18 15 10 10 10 11 12 11 12 12 10 6 7
27 26 25 23 22 22 21 19 18 17 16 15 13 12 11 12 12 14 15 15 16 15 14 14 15 16 17 17 18 19 20 20 17 13 11 12 12 13 13 13 13 11 9 8 10
30 29 28 27 25 25 24 23 22 20 20 19 17 16 15 16 16 16 17 18 19 19 19 19 19 20 20 20 21 23 22 19 14 14 15 15 15 15 16 14 14 15 12 11 11
34 33 32 30 29 28 28 27 26 24 23 22 21 20 20 19 20 18 20 21 22 23 23 23 22 22 22 22 23 22 19 17 16 17 17 17 16 16 17 16 18 17 16 15 15
38 37 36 35 33 32 32 31 30 28 27 26 25 24 24 23 24 22 22 23 24 24 24 24 24 24 25 25 24 20 19 20 20 19 17 18 17 18 18 19 19 18 16 15 16
41 40 40 39 38 36 36 35 34 33 31 30 30 29 28 28 27 27 26 26 26 27 27 27 27 27 27 27 25 21 23 23 23 21 19 19 20 21 20 20 19 18 18 17 17
45 44 42 42 41 40 39 39 38 36 36 35 35 34 32 32 32 32 31 31 31 31 31 31 31 30 30 29 26 25 24 24 24 23 22 23 23 23 23 24 22 21 21 21 23
48 47 46 46 45 43 43 42 41 41 40 40 39 38 37 36 34 33 33 33 33 34 34 34 34 33 32 29 27 27 26 24 23 24 25 24 24 24 25 26 26 26 25 26 27
51 50 49 48 47 46 46 46 45 44 44 44 43 42 40 37 37 37 36 36 35 35 34 35 35 34 30 30 29 29 25 23 22 24 25 26 24 28 30 30 30 30 30 30 30
52 51 50 51 50 49 49 48 47 47 46 46 45 45 43 40 39 39 38 37 37 37 37 35 34 32 28 31 29 28 27 25 23 27 30 30 30 29 31 32 31 31 30 28 26
55 54 53 52 51 49 50 49 49 48 47 46 48 47 45 43 41 40 40 39 37 37 36 36 35 29 31 31 31 31 29 27 27 32 33 32 33 30 30 29 28 27 25 27 28
55 54 55 54 53 52 52 52 51 53 52 51 51 51 49 47 46 43 41 40 39 36 35 34 31 31 32 33 33 31 32 30 32 35 37 36 32 28 26 25 26 25 28 30 31
58 57 56 56 54 51 51 51 51 52 53 49 48 48 47 45 44 42 39 37 36 36 35 37 37 33 33 33 33 34 36 35 39 39 38 36 31 27 27 26 28 30 31 31 31
61 59 58 57 56 53 51 51 49 49 54 52 47 48 46 44 44 39 38 36 36 35 36 38 34 33 35 36 38 40 39 41 41 41 38 36 36 28 29 29 29 30 32 31 31
65 62 60 59 57 54 53 55 54 53 57 53 50 48 47 47 44 39 38 39 39 38 40 40 39 38 39 38 40 42 41 41 41 40 40 37 38 35 32 31 32 32 31 32 35
71 68 64 62 59 57 58 57 58 58 61 54 53 51 45 42 41 40 37 39 38 40 40 41 43 42 39 38 39 39 38 39 42 43 43 36 39 43 38 34 32 34 35 32 32
72 74 69 66 63 61 62 61 61 67 59 57 55 54 53 49 45 44 46 47 47 48 46 44 44 45 43 40 39 38 39 42 43 43 42 41 42 41 41 38 34 32 33 33 35
68 69 71 70 68 71 73 68 72 64 62 58 60 55 59 53 47 47 47 49 46 48 49 47 43 42 40 38 39 40 42 42 43 43 45 44 44 44 39 38 38 37 36 40 44
58 68 70 60 71 74 75 75 65 57 63 63 61 59 56 57 54 50 51 48 49 48 47 48 46 43 41 41 41 42 44 40 45 47 47 46 46 44 43 42 41 40 45 48 50
47 51 56 64 61 65 75 75 62 63 60 58 58 55 55 58 59 53 50 47 47 46 45 48 46 42 42 42 44 45 44 47 48 48 48 49 47 47 48 49 43 44 47 48 51
51 64 64 55 56 64 72 62 60 54 50 51 51 49 52 55 57 55 51 50 48 43 42 44 45 44 44 45 44 47 48 49 49 50 49 50 53 54 55 51 48 48 50 53 58
56 62 61 57 63 67 67 55 56 53 51 48 49 51 51 46 48 50 51 47 44 43 44 41 46 47 47 48 49 50 50 50 51 49 48 52 53 56 54 52 53 53 55 59 61
58 61 62 58 66 65 64 62 58 56 53 53 57 54 52 53 53 48 48 48 49 47 47 45 49 49 51 53 53 48 48 50 50 49 54 55 57 54 51 53 52 53 58 60 61
49 54 62 67 68 68 61 66 64 62 63 56 57 57 58 60 55 54 53 54 55 51 52 50 53 55 56 56 53 54 54 53 53 57 58 61 56 57 52 52 51 57 64 68 67
47 55 51 58 60 62 68 68 65 66 69 63 64 60 60 61 60 58 59 57 58 57 56 59 60 59 60 59 60 60 60 58 60 59 63 58 61 57 51 52 54 59 66 66 65
55 54 61 54 55 58 61 65 69 68 66 65 66 64 63 62 62 60 62 61 62 65 61 64 64 63 64 63 64 66 64 63 62 62 64 65 65 57 58 61 60 63 65 64 62
68 63 62 59 48 50 52 52 51 50 59 61 62 63 65 65 65 63 63 66 68 66 67 64 61 60 65 64 64 66 70 66 66 65 63 67 62 65 64 64 63 62 63 64 65

GFSSW_500_spd_036.txt.gz
Wind_Speed
26 25 24 23 22 20 18 17 15 14 13 12 11 9 8 7 7 8 8 10 10 10 10 10 10 10 10 11 12 13 14 16 17 13 10 7 6 6 6 6 6 6 5 3 5
29 28 27 25 24 22 21 19 18 17 16 14 13 11 10 9 9 9 11 12 13 14 14 14 13 13 14 15 15 15 17 18 18 13 10 10 11 10 9 8 8 8 8 8 9
32 31 30 29 27 25 24 23 22 20 19 18 17 16 15 13 13 12 13 14 15 17 18 18 18 18 19 18 17 18 19 19 16 14 13 13 13 12 11 11 12 10 11 11 11
35 34 33 32 30 29 28 27 26 24 23 21 20 20 19 18 16 17 16 17 18 19 20 21 22 22 21 20 20 20 20 19 16 16 16 17 15 14 13 14 13 14 13 13 14
39 38 37 36 34 33 31 30 30 28 27 26 25 24 23 22 22 20 20 19 19 20 22 23 23 22 22 22 21 22 21 20 20 20 19 19 16 15 15 15 16 14 15 15 15
42 41 40 39 38 37 35 34 33 33 31 30 29 28 26 26 25 24 24 24 24 24 24 25 26 25 25 25 24 23 23 22 22 22 21 20 18 17 17 17 17 17 17 16 17
45 45 44 43 42 41 39 38 37 37 35 34 33 32 30 30 29 29 28 28 28 29 29 28 29 29 28 29 28 25 24 24 24 24 22 21 20 21 20 20 19 19 19 19 20
49 48 47 46 45 44 43 42 41 40 39 38 37 36 34 34 34 33 33 33 32 31 31 32 32 32 31 31 30 28 26 26 25 24 25 23 23 22 22 22 22 22 22 23 24
52 52 51 50 48 47 46 45 44 43 43 42 41 40 39 36 37 38 37 35 34 34 33 33 33 32 32 32 32 30 28 26 25 26 26 24 23 24 25 25 25 26 26 26 26
54 54 53 53 52 51 50 49 49 48 47 46 45 45 43 40 40 40 39 38 38 37 36 35 36 35 32 32 33 31 28 26 25 28 28 27 27 27 28 28 29 29 27 26 24
57 55 54 54 54 53 52 52 52 51 50 48 49 48 47 44 42 41 42 42 40 38 37 37 38 31 33 36 33 31 29 27 27 32 32 32 31 29 30 30 31 29 25 25 24
58 59 58 56 55 54 53 53 53 53 53 51 52 51 50 48 46 43 43 43 42 42 41 40 38 35 36 34 32 30 32 29 30 34 35 35 32 32 33 32 31 29 27 26 27
61 62 60 58 59 56 55 54 53 54 57 53 54 54 52 52 51 49 47 46 44 42 40 40 37 34 34 35 34 34 35 33 35 36 38 37 37 34 34 32 31 31 30 30 30
64 63 63 63 63 55 54 54 55 55 59 59 53 55 53 50 49 46 43 41 40 37 37 39 36 36 36 37 36 38 35 37 39 41 41 39 43 32 32 32 31 31 32 32 31
76 71 68 64 61 59 56 58 57 56 61 59 56 54 51 50 48 42 40 39 39 38 39 39 37 37 39 36 39 41 39 42 42 43 45 43 41 38 32 32 33 33 33 34 34
53 74 76 72 68 61 62 61 59 58 62 59 54 49 48 45 44 41 40 41 40 39 39 39 39 38 37 38 42 45 43 41 43 45 48 39 39 44 32 32 33 34 34 33 33
54 60 72 74 70 67 66 64 64 66 62 61 58 55 48 46 43 41 38 37 37 38 38 38 41 44 43 43 42 43 43 45 46 47 45 42 42 42 39 34 32 34 35 34 32
54 54 60 62 69 74 74 71 73 64 64 63 62 57 54 50 47 47 45 45 48 43 43 47 51 51 51 46 46 45 46 46 46 45 44 45 46 42 39 39 36 37 35 32 31
52 57 59 62 62 78 73 75 74 71 69 66 65 61 60 55 54 53 52 51 49 46 46 49 51 51 49 48 47 46 46 39 43 46 47 47 45 43 42 41 41 38 36 34 36
53 60 60 62 62 67 85 80 67 73 72 71 67 64 63 59 56 58 56 52 50 50 52 51 51 51 52 48 49 48 43 44 46 46 46 47 47 47 45 44 43 40 39 38 39
53 60 54 53 53 67 82 73 71 75 74 71 66 63 64 63 62 56 56 54 52 49 51 50 49 50 52 50 45 44 46 45 45 46 47 48 47 48 49 47 45 43 41 43 47
60 59 56 54 61 69 70 54 66 74 75 71 67 64 61 59 56 57 58 50 44 46 52 50 51 53 53 49 45 47 48 48 50 47 46 48 49 52 51 50 48 47 47 49 52
70 68 66 63 71 69 68 60 65 61 59 61 64 62 60 58 56 53 54 42 41 42 43 44 48 49 52 53 53 51 45 46 48 48 50 54 50 54 51 49 51 51 53 54 56
58 57 67 70 69 74 67 64 63 62 63 61 62 63 61 59 57 54 52 48 45 43 45 48 49 50 51 51 49 49 47 47 50 53 53 54 55 56 53 53 55 56 58 59 61
63 62 56 63 69 65 68 68 69 71 69 67 63 62 59 61 57 54 53 49 49 48 49 48 52 51 52 54 56 55 55 54 58 56 63 59 63 58 56 56 60 61 63 65 64
75 64 63 60 58 59 57 62 65 64 66 64 65 65 63 63 60 56 54 55 52 51 50 57 56 55 55 57 61 65 63 62 64 65 66 66 66 64 56 55 61 65 65 65 64
71 71 60 64 59 52 56 56 54 61 61 58 60 65 64 66 62 61 65 61 61 58 57 54 56 56 59 59 63 70 65 67 66 66 66 67 60 61 57 59 65 66 66 66 68

GFSSW_500_spd_042.txt.gz
Wind_Speed
34 33 32 31 29 27 26 24 23 21 20 18 16 15 14 13 11 11 10 11 12 12 12 11 11 11 10 9 9 9 11 11 11 12 12 11 7 8 9 9 10 9 8 6 8
36 35 34 33 32 30 28 26 24 23 22 20 19 17 16 15 13 13 11 11 12 13 12 12 12 13 12 12 12 12 14 13 13 14 13 11 10 10 12 12 13 12 10 9 9
37 37 36 35 34 33 31 30 28 26 24 23 21 20 19 17 15 14 13 13 13 14 14 14 15 15 15 16 17 17 17 16 15 16 14 12 12 13 13 13 13 14 14 12 11
38 38 38 37 37 36 35 33 32 30 28 26 25 24 22 21 19 17 16 15 14 15 15 16 17 18 19 19 21 20 19 18 17 17 16 15 15 16 15 14 16 15 16 16 15
40 40 40 39 39 38 37 36 34 33 31 30 29 27 26 24 23 21 19 18 17 16 17 18 19 19 21 21 22 21 20 21 20 20 19 17 18 18 16 17 17 16 16 17 18
43 43 42 42 42 41 40 39 37 36 34 32 31 30 29 27 26 24 23 22 20 19 19 19 20 21 20 22 23 24 24 24 24 23 22 21 21 18 21 21 18 18 18 18 18
47 46 45 45 44 44 43 42 40 38 37 36 35 33 32 31 29 28 27 26 25 23 22 22 23 23 23 25 26 27 28 28 26 27 24 25 23 20 21 22 20 21 20 19 18
50 50 49 48 47 47 46 45 43 42 41 40 39 37 35 34 33 31 30 30 29 28 26 26 26 26 27 28 27 28 28 31 28 29 28 29 22 25 24 23 23 23 22 21 20
54 53 52 51 50 49 48 48 47 46 45 44 42 41 39 37 36 35 35 33 33 31 31 30 29 29 29 28 29 29 30 32 34 32 31 33 30 26 26 26 24 24 23 23 23
57 57 57 55 54 53 51 51 50 50 49 48 46 44 43 39 39 39 39 37 37 36 36 34 34 33 30 31 30 35 34 32 34 33 32 34 32 32 28 28 26 26 24 25 26
61 60 60 59 58 57 56 55 54 55 53 50 50 48 47 44 43 43 42 41 41 40 38 39 39 34 32 35 35 37 34 34 32 38 37 37 37 37 32 30 29 29 29 28 29
65 65 63 63 62 60 60 59 58 58 57 54 55 52 51 48 47 46 46 45 45 43 44 43 40 35 37 38 37 37 38 37 35 42 41 38 40 36 36 30 33 34 31 31 29
62 71 67 66 65 63 62 61 61 61 63 58 56 57 54 52 51 49 50 50 48 47 45 45 41 39 40 39 42 40 41 38 40 44 42 40 41 37 36 36 34 33 36 36 32
44 66 70 73 67 64 62 62 62 62 65 64 60 59 58 56 57 54 52 53 52 47 45 49 42 45 41 41 41 42 39 40 38 41 42 42 48 38 36 38 37 33 40 40 36
38 48 60 70 70 72 64 60 61 63 67 69 67 66 62 61 60 59 55 54 52 47 47 50 47 46 43 38 41 41 38 39 38 41 46 44 49 37 33 35 35 35 40 41 39
56 50 51 58 60 64 67 66 69 68 75 75 71 66 67 65 64 64 59 54 52 52 52 50 48 45 41 38 40 40 39 41 43 44 52 42 44 53 36 37 37 36 38 39 37
66 60 54 48 51 55 56 68 69 68 73 77 75 73 71 67 64 62 60 57 53 53 54 46 48 48 43 41 42 42 42 44 48 50 51 47 49 49 43 40 37 36 36 36 35
68 62 67 57 53 52 52 60 68 68 68 66 71 74 70 68 63 61 59 58 54 46 46 46 46 43 38 40 38 44 44 45 48 51 53 53 52 47 45 41 34 33 32 33 32
71 65 67 64 57 44 52 62 60 53 69 72 75 73 70 68 65 64 60 54 52 50 44 41 45 43 38 38 41 45 48 40 50 52 55 55 52 49 43 35 33 33 31 29 31
71 65 67 65 64 60 53 63 51 51 56 62 74 73 74 75 73 67 61 52 47 46 46 51 49 50 46 45 48 50 47 48 52 56 58 56 51 47 42 38 35 33 32 30 30
71 71 70 66 68 72 63 60 45 55 58 59 55 61 64 71 76 74 65 58 53 49 50 51 53 52 50 50 46 50 53 54 54 57 59 56 48 48 45 45 40 35 32 31 29
72 72 68 69 69 70 66 54 59 57 60 59 57 59 60 61 67 70 67 61 58 56 56 54 55 57 55 55 59 59 57 55 54 54 54 57 46 45 46 44 39 35 34 34 34
71 71 67 69 72 68 69 63 61 65 57 59 59 58 60 63 64 61 61 59 56 57 55 56 57 55 58 59 59 56 54 51 46 50 52 56 46 48 43 43 41 38 40 40 39
70 70 69 71 69 69 65 65 66 62 62 59 56 57 58 62 63 59 58 57 56 61 57 57 59 59 61 59 58 56 51 49 51 55 53 51 49 46 42 42 39 40 44 43 43
73 70 70 72 73 68 64 69 72 64 68 65 65 63 59 62 64 64 63 65 63 58 60 65 65 64 62 57 58 59 57 57 55 51 53 46 49 43 44 44 46 48 50 47 46
72 71 70 70 73 73 72 62 71 73 63 63 71 62 64 62 62 57 62 64 61 60 60 62 61 61 62 58 57 58 60 58 59 55 52 49 50 48 45 46 49 51 52 53 54
74 72 72 72 71 74 76 74 68 70 66 59 61 68 68 64 57 54 55 58 60 60 57 58 57 55 57 56 55 60 54 55 55 55 52 53 45 47 47 50 50 51 53 54 56

GFSSW_500_spd_045.txt.gz
Wind_Speed
37 36 35 34 33 31 29 27 25 24 22 20 19 17 16 15 16 16 14 14 15 15 16 15 14 12 11 10 8 7 7 9 11 8 7 10 9 7 6 9 10 8 8 7 7
38 38 38 37 36 34 32 29 27 25 23 22 21 20 19 17 17 16 15 14 14 15 15 15 14 13 13 12 10 10 10 11 11 11 8 10 9 10 8 10 11 12 10 9 9
40 40 40 40 38 36 34 32 30 28 26 25 24 22 21 20 18 16 15 14 15 15 15 15 15 14 14 13 13 13 13 13 14 13 11 12 9 13 11 9 12 14 11 11 12
41 41 41 41 40 39 37 35 33 31 30 29 27 25 24 22 21 19 17 16 16 16 16 16 16 16 16 15 18 16 15 16 16 15 14 14 13 14 12 12 14 16 15 14 14
40 41 42 42 41 40 40 38 36 35 33 31 30 28 26 25 23 21 20 19 18 17 16 16 16 18 16 17 19 18 18 17 16 17 17 17 17 15 15 18 16 16 17 17 16
41 42 42 43 43 42 42 41 40 39 37 35 33 32 30 29 27 25 24 22 21 19 18 17 18 17 16 17 19 19 19 19 20 21 21 21 20 17 18 20 20 17 18 18 17
43 43 43 43 43 43 43 43 42 42 40 39 37 36 34 32 30 29 28 26 25 23 21 21 20 19 19 19 21 22 23 23 23 24 22 24 21 19 22 20 23 20 20 20 19
47 46 46 45 45 45 45 45 45 44 43 42 40 38 36 35 33 32 31 30 29 27 26 25 24 22 21 22 22 24 24 24 24 25 25 26 19 25 24 23 23 23 22 22 21
51 50 50 49 48 48 48 48 48 47 46 45 44 42 40 37 36 35 34 33 32 31 30 29 28 26 26 25 25 25 28 29 28 27 28 29 25 26 28 25 26 25 24 24 23
55 54 52 52 52 51 51 51 51 51 50 49 47 46 43 40 39 39 38 37 36 35 33 32 32 31 27 29 28 31 30 31 31 32 32 31 30 31 28 28 26 26 26 27 27
62 54 56 55 55 54 53 53 54 54 54 52 51 49 47 45 43 43 41 40 39 38 37 38 37 30 30 34 33 33 34 33 34 36 38 37 34 34 34 31 26 27 29 28 29
69 67 61 57 58 57 56 56 56 57 57 55 55 53 51 49 47 46 45 44 43 42 42 40 37 35 36 36 35 34 36 35 37 43 46 44 40 37 37 32 30 29 28 29 30
41 65 66 66 61 56 58 58 58 59 62 57 56 57 55 53 51 49 49 49 47 46 44 43 41 38 39 38 38 36 37 38 43 45 48 47 44 38 35 32 28 28 29 30 31
44 41 48 74 74 66 63 60 61 63 65 64 59 59 58 57 57 54 53 52 50 47 46 47 43 41 41 40 39 40 41 42 42 45 45 43 46 34 29 32 31 29 32 34 33
53 50 42 41 53 72 69 68 68 65 66 67 65 63 63 62 60 55 55 55 53 50 49 48 47 44 44 41 41 44 42 41 41 43 46 44 45 33 27 27 28 30 30 33 34
59 57 57 46 38 51 69 72 74 71 77 75 71 68 68 64 62 61 59 57 55 54 52 51 51 49 46 44 43 42 42 41 44 45 53 41 43 47 29 29 29 32 30 34 35
61 62 62 61 43 37 41 50 61 67 75 74 75 74 73 70 67 64 63 61 58 56 56 54 53 52 51 48 47 45 41 44 49 51 55 46 47 47 41 33 33 34 37 37 35
65 66 67 61 62 60 47 44 56 60 58 66 68 71 72 72 71 69 66 63 61 56 56 54 55 52 50 44 41 40 46 50 51 54 55 53 49 42 42 39 34 32 34 34 32
68 70 69 62 63 64 63 65 50 45 55 61 68 68 64 63 61 61 64 65 64 61 56 52 54 50 46 44 40 44 47 35 42 43 46 45 44 41 42 44 40 31 30 30 29
69 71 69 66 67 64 62 63 54 51 53 56 59 57 58 64 67 63 60 56 54 51 48 46 49 52 50 50 48 46 45 44 45 48 51 52 46 43 44 42 39 36 31 27 27
69 70 68 68 68 61 68 70 54 52 49 55 55 56 56 53 57 65 65 61 58 54 48 45 49 52 49 48 45 43 47 46 45 49 49 51 48 47 47 44 39 38 29 24 26
71 70 68 67 69 69 71 67 72 73 68 62 54 51 57 54 53 53 58 59 56 54 53 50 49 54 55 53 51 50 52 52 49 47 52 55 48 47 43 40 38 39 37 31 27
75 70 69 66 69 68 66 68 66 68 62 65 61 55 53 53 55 53 53 52 51 52 49 49 57 55 56 57 58 55 50 47 47 49 54 54 47 46 42 41 41 39 41 39 36
75 75 72 73 71 66 67 73 74 70 76 75 61 61 60 54 55 56 54 54 51 52 47 50 56 56 56 51 51 50 48 45 48 55 54 51 48 47 45 41 40 42 42 41 41
76 76 75 75 72 72 66 69 76 78 77 75 76 71 66 59 56 53 51 51 52 52 52 53 52 53 48 48 52 52 52 52 59 57 59 51 52 45 45 40 41 44 44 41 41
73 75 76 74 73 72 73 73 65 73 78 78 73 67 69 67 59 50 48 53 53 51 50 50 52 54 55 52 53 56 57 61 63 61 61 56 54 49 40 43 45 47 49 49 47
73 72 75 76 75 75 74 71 72 63 68 73 71 67 71 69 58 56 58 57 58 55 53 53 47 50 55 53 52 58 54 53 51 50 52 57 50 48 46 46 44 45 48 46 45

GFSSW_500_spd_048.txt.gz
Wind_Speed
40 37 35 33 33 31 30 29 28 27 25 24 22 21 20 20 20 19 19 19 19 19 20 20 18 16 15 13 10 8 6 7 5 5 6 8 6 4 6 7 6 8 8 8 6
40 38 37 36 35 34 34 32 30 29 28 26 24 23 22 21 21 20 19 19 19 19 19 18 17 16 15 13 12 10 9 10 10 8 6 9 8 7 8 8 8 10 11 10 10
41 40 39 38 38 37 36 35 34 32 31 28 26 25 24 23 22 21 20 20 19 19 18 18 17 16 16 15 14 13 12 13 12 11 9 10 9 10 8 10 13 12 10 12 13
42 42 42 41 40 40 39 39 37 36 33 30 29 28 27 25 25 23 21 21 20 20 19 18 17 19 18 18 17 15 16 15 15 13 12 12 12 13 10 12 16 15 13 13 14
41 42 43 42 42 42 42 42 40 38 35 34 33 32 30 29 28 25 23 22 21 20 19 18 20 19 18 19 18 17 17 15 16 16 15 16 16 14 13 15 16 17 18 16 15
38 41 43 43 44 44 45 44 43 40 38 37 36 35 34 32 31 28 26 25 23 22 20 20 19 19 19 20 18 17 17 15 17 18 19 19 18 18 18 18 17 18 19 20 17
40 40 42 44 45 46 46 46 45 43 42 41 40 38 37 36 34 31 30 28 27 25 23 22 20 20 19 19 19 18 18 18 21 20 20 21 18 19 20 20 19 20 20 21 21
44 44 43 44 46 47 47 47 47 46 45 45 44 42 41 39 37 34 33 33 30 29 28 26 25 23 21 21 19 20 21 21 22 20 20 22 17 23 23 24 23 23 23 22 22
46 48 47 46 46 48 48 49 49 49 48 48 47 46 44 41 39 38 37 36 34 33 32 31 29 27 25 24 23 24 25 23 23 24 25 26 21 26 27 27 25 25 24 25 24
60 51 52 50 48 49 49 49 50 51 51 51 50 48 46 42 41 41 40 39 38 37 35 34 33 31 28 27 29 29 27 26 26 27 29 29 26 29 29 30 29 26 26 27 27
46 60 50 53 52 50 51 51 51 53 54 52 52 51 49 46 45 43 43 42 40 39 38 38 37 30 30 32 33 32 31 30 30 33 33 33 34 34 37 35 31 31 30 28 28
50 51 60 61 55 54 54 54 54 55 56 54 55 53 52 50 47 46 45 45 44 43 43 41 38 35 35 34 35 34 35 32 33 36 40 38 39 40 41 38 35 34 30 28 29
55 52 53 48 69 55 57 56 56 56 59 55 56 56 55 53 52 50 49 48 48 46 45 43 41 39 38 37 38 36 36 35 38 39 42 44 47 42 35 33 31 31 29 27 27
56 54 56 55 53 70 60 57 58 59 61 62 56 59 57 56 56 54 54 52 51 48 47 48 44 41 40 41 40 40 37 40 39 42 47 48 54 39 32 29 29 25 28 28 29
58 56 52 44 47 46 74 68 63 60 64 65 63 60 60 61 59 55 55 54 53 51 50 50 47 45 45 42 42 41 39 40 42 48 51 50 53 45 32 25 22 26 30 29 30
61 57 57 47 44 40 42 53 70 64 71 70 67 64 64 62 63 61 57 55 55 54 53 52 52 48 46 44 43 43 42 43 47 51 61 51 53 54 38 28 25 26 30 33 35
64 62 60 58 54 50 45 49 52 51 67 80 74 71 70 67 64 62 60 59 57 55 55 53 52 50 48 46 46 46 45 47 53 57 63 55 55 50 43 34 33 31 32 33 35
65 63 62 60 57 59 60 53 54 54 46 62 73 82 81 79 73 69 65 61 59 59 58 57 57 51 49 48 45 41 41 47 52 57 56 52 44 33 31 26 27 28 27 30 35
67 65 63 61 59 60 64 70 59 52 41 38 49 64 70 69 69 73 72 70 68 65 63 62 60 57 55 52 48 52 59 54 54 57 56 48 42 37 37 35 31 26 27 29 32
70 69 65 63 63 58 62 73 62 60 54 50 43 42 50 55 60 60 62 65 64 61 53 51 57 62 64 62 58 54 47 46 49 54 55 53 49 46 42 40 40 34 31 30 32
72 73 68 66 68 66 66 63 69 66 61 55 52 55 46 53 52 59 59 59 59 57 54 51 52 55 51 52 50 47 46 48 51 53 54 53 47 48 45 39 37 37 32 26 26
71 74 72 69 72 72 70 64 72 70 68 64 60 57 53 52 53 53 56 52 52 48 49 47 52 55 54 51 51 50 51 51 52 50 50 51 45 46 46 38 36 37 37 37 32
72 71 75 67 73 76 70 68 69 71 65 58 62 63 53 47 50 47 54 53 49 48 45 41 47 50 55 58 58 60 58 51 48 48 51 54 47 49 44 43 39 37 39 41 40
75 74 73 78 68 66 71 68 71 71 72 55 60 67 72 69 60 58 53 54 45 48 46 46 48 49 51 51 53 53 52 49 50 54 55 53 48 45 43 42 40 38 42 43 40
82 79 76 78 78 75 69 66 70 72 69 76 53 66 68 75 66 67 60 55 53 47 48 49 49 47 47 45 47 49 51 53 57 54 56 48 52 45 43 46 45 44 44 45 46
84 82 80 77 76 76 77 76 67 64 71 73 71 71 70 72 69 62 61 58 55 56 48 48 48 45 46 45 50 52 51 55 57 56 58 57 55 49 48 48 46 46 48 50 51
83 83 82 81 76 76 77 77 74 70 66 67 71 69 77 74 70 71 70 70 66 65 58 54 50 50 50 43 48 52 50 54 54 52 51 55 48 47 49 47 47 44 47 52 53